Home   Weather   Christiansted   Past weeks

Flag for US Virgin Islands Past Weather in Christiansted, US Virgin Islands — Yesterday and Last 2 Weeks

Now
82 °F

Passing clouds.


Feels Like: 84 °F
Forecast: 67 / 78 °F
Wind: 8 mph from South

Location: Christiansted / Henry E. Rohlsen Airport - Saint Croix

Current Time: Jan 20, 2017 at 4:11:20 pm

Latest Report: Jan 20, 2017 at 2:53 pm


Visibility: 10 mi

Pressure: 29.95 "Hg

Humidity: 56%

Dew Point: 65 °F

Location of ChristianstedLocation

Past Weather in Christiansted — Graph

°F

Christiansted Temperature Yesterday

Maximum temperature yesterday: 82 °F (at 12:53 pm)
Minimum temperature yesterday: 61 °F (at 4:53 am)
Average temperature yesterday: 72 °F

High & Low Weather Summary for the Past Weeks

 TemperatureHumidityPressure
High86 °F (Jan 6, 11:53 am)94% (Jan 9, 7:53 am)30.12 "Hg (Jan 9, 7:53 am)
Low61 °F (Jan 19, 4:53 am)44% (Jan 20, 12:53 pm)29.93 "Hg (Jan 10, 2:53 pm)
Average77 °F72%30.02 "Hg
* Reported Jan 5 2:53 pm — Jan 20 2:53 pm, Christiansted, Weather by CustomWeather, © 2017

Note: Actual official high and low records may vary slightly from our data, if they occured in-between our weather recording intervals... More about our weather records

Advertising

Christiansted Weather History for the Previous 24 Hours

Scroll right to see more
 ConditionsComfort  
Time TempWeatherWind HumidityBarometerVisibility
2:53 pm
Fri, Jan 20
82 °FPassing clouds.8 mph56%29.95 "Hg10 mi
1:53 pm82 °FScattered clouds.3 mph53%29.97 "Hg10 mi
12:53 pm83 °FPassing clouds.No wind44%29.99 "Hg10 mi
11:53 am82 °FPassing clouds.3 mph49%30.02 "Hg10 mi
10:53 am80 °FPassing clouds.5 mph56%30.03 "Hg10 mi
9:53 am79 °FSunny.7 mph60%30.02 "Hg10 mi
8:53 am77 °FSunny.3 mph66%30.01 "Hg10 mi
6:53 am65 °FSunny.6 mph91%29.98 "Hg10 mi
5:53 am65 °FClear.6 mph94%29.96 "Hg10 mi
4:53 am65 °FPassing clouds.6 mph91%29.96 "Hg10 mi
3:53 am65 °FClear.6 mph91%29.95 "Hg10 mi
2:53 am65 °FClear.5 mph91%29.96 "Hg10 mi
1:53 am66 °FClear.6 mph90%29.97 "Hg10 mi
12:53 am65 °FClear.5 mph91%29.99 "Hg10 mi
11:53 pm
Thu, Jan 19
67 °FClear.6 mph90%30.00 "Hg10 mi
10:53 pm67 °FClear.6 mph90%30.01 "Hg10 mi
9:53 pm68 °FClear.6 mph87%30.01 "Hg10 mi
8:53 pm69 °FPassing clouds.5 mph87%29.99 "Hg10 mi
7:53 pm70 °FPassing clouds.5 mph84%29.98 "Hg10 mi
6:53 pm71 °FPassing clouds.5 mph81%29.96 "Hg10 mi
5:53 pm75 °FPassing clouds.5 mph71%29.94 "Hg10 mi
4:53 pm80 °FPassing clouds.N/A60%29.94 "Hg10 mi
Weather by CustomWeather, © 2017

See weather overviewHow to use our weather pages